Starlink 5022

operational
NORAD ID: 53903 Int'l Des: 2022-119 Owner: SPXS Country: US Constellation: starlink
LEOCIRCULAR

Über Starlink 5022

Beschreibung wird geladen...

Live-Position

3D-Globus wird geladen...

Nächste Überflüge

Höhenverlauf

Altitude vs Time

uPlot chart will show altitude changes over time

Zweizeiliger Elementsatz

1 53903U 22119T 25350.26924570 .00002822 00000-0 19546-3 0 9997
2 53903 53.2185 338.4137 0001281 90.0292 270.0847 15.08817841179096
Epoch: 16. Dez. 2025 • Age: 15 hours

Aktueller Status

Höhe 543.6 km
Geschwindigkeit 7.59 km/s
Subsatellitenpunkt -13.18°S, 115.27°E
Startdatum 24. Sept. 2022
Alter 3.2 years
Typ internet

Technische Details

Klassifizierung Payload
Masse 305.00 kg
Trockenmasse 290.00 kg
Gesamtmasse 305.00 kg
Länge 0.20 m
Durchmesser 2.80 m
Spannweite 9.00 m
Form Box + pan
Hersteller SPXS
Bus-Typ Starlink
Phasenstatus In Orbit
Besitzer/Staat SPXS/US

Große Konstellationen

Loading constellations...